When you browse on this site, cookies collect data to enhance your experience and personalize the content and advertising you see.
Visit our Privacy Policy to learn more. By continuing to use the site, you agree to this use of cookies and data.
  • en France
  • Liste des pays
  • À 7 jours
  • Température de l'eau
  • Carte satellitaire
  • Carte météo
  • Widgets météo
  • user-avatar
    Se connecter

    Météo par heure à Dziadowice

    Ce jour, 24 Janvier, Jeudi

    Heure Température Précipitation Vent Pression Humidité
    00:00 -9°C° 0 mm 4 m/s 743 mmHg 69%
    01:00 -8°C° 0 mm 3 m/s 744 mmHg 69%
    02:00 -9°C° 0 mm 4 m/s 744 mmHg 70%
    03:00 -9°C° 0 mm 4 m/s 744 mmHg 70%
    04:00 -9°C° 0 mm 4 m/s 744 mmHg 70%
    05:00 -9°C° 0 mm 4 m/s 744 mmHg 70%
    06:00 -9°C° 0 mm 4 m/s 744 mmHg 71%
    07:00 -9°C° 0 mm 4 m/s 745 mmHg 71%
    08:00 -9°C° 0 mm 4 m/s 745 mmHg 70%
    09:00 -10°C° 0 mm 5 m/s 745 mmHg 68%
    10:00 -10°C° 0 mm 5 m/s 745 mmHg 67%
    11:00 -8°C° 0 mm 5 m/s 745 mmHg 65%
    12:00 -8°C° 0 mm 5 m/s 745 mmHg 63%
    13:00 -7°C° 0 mm 5 m/s 745 mmHg 61%
    14:00 -7°C° 0 mm 5 m/s 745 mmHg 61%
    15:00 -8°C° 0 mm 5 m/s 746 mmHg 62%
    16:00 -8°C° 0 mm 5 m/s 746 mmHg 62%
    17:00 -8°C° 0 mm 5 m/s 746 mmHg 63%
    18:00 -8°C° 0 mm 5 m/s 746 mmHg 65%
    19:00 -8°C° 0 mm 5 m/s 746 mmHg 66%
    20:00 -8°C° 0 mm 5 m/s 746 mmHg 68%
    21:00 -10°C° 0 mm 5 m/s 746 mmHg 69%
    22:00 -9°C° 0 mm 4 m/s 746 mmHg 71%
    23:00 -9°C° 0 mm 4 m/s 746 mmHg 71%

    Demain, 25 Janvier, Vendredi

    Heure Température Précipitation Vent Pression Humidité
    00:00 -9°C° 0 mm 4 m/s 746 mmHg 70%
    01:00 -9°C° 0 mm 4 m/s 746 mmHg 70%
    02:00 -9°C° 0 mm 4 m/s 746 mmHg 71%
    03:00 -9°C° 0 mm 4 m/s 746 mmHg 73%
    04:00 -8°C° 0 mm 3 m/s 746 mmHg 74%
    05:00 -8°C° 0.1 mm 3 m/s 746 mmHg 76%
    06:00 -8°C° 0.1 mm 3 m/s 746 mmHg 78%
    07:00 -8°C° 0.1 mm 3 m/s 746 mmHg 80%
    08:00 -8°C° 0.1 mm 3 m/s 746 mmHg 80%
    09:00 -7°C° 0.1 mm 2 m/s 746 mmHg 79%
    10:00 -6°C° 0.1 mm 2 m/s 746 mmHg 79%
    11:00 -4°C° 0.1 mm 1 m/s 746 mmHg 77%
    12:00 -4°C° 0.1 mm 1 m/s 746 mmHg 76%
    13:00 -5°C° 0.1 mm 0 m/s 746 mmHg 74%
    14:00 -4°C° 0.1 mm 1 m/s 746 mmHg 75%
    15:00 -6°C° 0.1 mm 2 m/s 746 mmHg 76%
    16:00 -5°C° 0.1 mm 2 m/s 746 mmHg 76%
    17:00 -7°C° 0 mm 3 m/s 746 mmHg 76%
    18:00 -7°C° 0 mm 3 m/s 747 mmHg 76%
    19:00 -7°C° 0 mm 3 m/s 747 mmHg 76%
    20:00 -7°C° 0 mm 3 m/s 747 mmHg 76%
    21:00 -7°C° 0 mm 3 m/s 747 mmHg 76%
    22:00 -7°C° 0 mm 3 m/s 747 mmHg 76%
    23:00 -7°C° 0 mm 3 m/s 746 mmHg 76%

    Après-demain, 26 Janvier, Samedi

    Heure Température Précipitation Vent Pression Humidité
    00:00 -7°C° 0 mm 3 m/s 746 mmHg 76%
    01:00 -8°C° 0 mm 3 m/s 745 mmHg 76%
    02:00 -8°C° 0 mm 4 m/s 745 mmHg 75%
    03:00 -8°C° 0 mm 4 m/s 744 mmHg 74%
    04:00 -8°C° 0 mm 4 m/s 743 mmHg 74%
    05:00 -8°C° 0.1 mm 4 m/s 743 mmHg 77%
    06:00 -8°C° 0.1 mm 5 m/s 742 mmHg 80%
    07:00 -8°C° 0.1 mm 5 m/s 741 mmHg 83%
    08:00 -7°C° 0.8 mm 5 m/s 740 mmHg 86%
    09:00 -7°C° 0.8 mm 5 m/s 739 mmHg 90%
    10:00 -8°C° 0.8 mm 6 m/s 738 mmHg 93%
    11:00 -6°C° 0.7 mm 5 m/s 738 mmHg 93%
    12:00 -4°C° 0.7 mm 5 m/s 737 mmHg 93%
    13:00 -2°C° 0.7 mm 4 m/s 736 mmHg 93%
    14:00 -2°C° 0 mm 4 m/s 736 mmHg 94%
    15:00 -2°C° 0 mm 4 m/s 736 mmHg 94%
    16:00 -1°C° 0 mm 3 m/s 736 mmHg 95%
    17:00 -1°C° 0 mm 3 m/s 737 mmHg 95%
    18:00 -1°C° 0 mm 3 m/s 737 mmHg 94%
    19:00 -2°C° 0 mm 3 m/s 737 mmHg 94%
    20:00 -1°C° 0.2 mm 3 m/s 738 mmHg 95%
    21:00 -2°C° 0.2 mm 4 m/s 738 mmHg 95%
    22:00 -2°C° 0.2 mm 4 m/s 738 mmHg 95%
    23:00 -1°C° 0 mm 3 m/s 738 mmHg 96%

    27 Janvier, Dimanche

    Heure Température Précipitation Vent Pression Humidité
    00:00 -1°C° 0 mm 3 m/s 738 mmHg 96%
    01:00 -1°C° 0 mm 2 m/s 738 mmHg 97%
    02:00 -1°C° 0 mm 2 m/s 738 mmHg 97%
    03:00 0°C° 0 mm 1 m/s 738 mmHg 97%
    04:00 -1°C° 0 mm 0 m/s 738 mmHg 97%
    05:00 0°C° 0.1 mm 1 m/s 737 mmHg 97%
    06:00 -2°C° 0.1 mm 2 m/s 737 mmHg 97%
    07:00 -2°C° 0.1 mm 3 m/s 737 mmHg 97%
    08:00 -1°C° 0.2 mm 3 m/s 737 mmHg 97%
    09:00 -1°C° 0.2 mm 3 m/s 736 mmHg 97%
    10:00 -2°C° 0.2 mm 4 m/s 736 mmHg 97%
    11:00 -1°C° 0.5 mm 4 m/s 736 mmHg 98%
    12:00 0°C° 0.5 mm 3 m/s 735 mmHg 99%
    13:00 0°C° 0.5 mm 3 m/s 734 mmHg 99%
    14:00 0°C° 0.1 mm 3 m/s 734 mmHg 99%
    15:00 0°C° 0.1 mm 3 m/s 734 mmHg 99%
    16:00 0°C° 0.1 mm 3 m/s 733 mmHg 98%
    17:00 0°C° 0.1 mm 3 m/s 733 mmHg 97%
    18:00 0°C° 0.1 mm 3 m/s 733 mmHg 96%
    19:00 0°C° 0.1 mm 3 m/s 733 mmHg 95%
    20:00 0°C° 0 mm 3 m/s 732 mmHg 93%
    21:00 0°C° 0 mm 3 m/s 732 mmHg 92%
    22:00 -1°C° 0 mm 4 m/s 732 mmHg 90%
    23:00 -1°C° 0.1 mm 4 m/s 732 mmHg 90%

    28 Janvier, Lundi

    Heure Température Précipitation Vent Pression Humidité
    00:00 0°C° 0.1 mm 3 m/s 732 mmHg 90%
    01:00 0°C° 0.1 mm 3 m/s 731 mmHg 89%
    02:00 0°C° 0.1 mm 3 m/s 731 mmHg 90%
    03:00 -1°C° 0.1 mm 4 m/s 731 mmHg 91%
    04:00 -1°C° 0.1 mm 4 m/s 730 mmHg 91%
    05:00 -2°C° 0 mm 4 m/s 730 mmHg 92%
    06:00 -1°C° 0 mm 3 m/s 730 mmHg 92%
    07:00 -1°C° 0 mm 3 m/s 730 mmHg 92%
    08:00 -1°C° 0 mm 3 m/s 730 mmHg 92%
    09:00 -1°C° 0 mm 3 m/s 730 mmHg 91%
    10:00 0°C° 0 mm 3 m/s 730 mmHg 91%
    11:00 0°C° 0 mm 3 m/s 730 mmHg 93%
    12:00 0°C° 0 mm 3 m/s 730 mmHg 96%
    13:00 +1°C° 0 mm 2 m/s 730 mmHg 98%
    14:00 0°C° 0.3 mm 3 m/s 730 mmHg 98%
    15:00 0°C° 0.3 mm 3 m/s 730 mmHg 97%
    16:00 0°C° 0.3 mm 3 m/s 730 mmHg 96%
    17:00 0°C° 0.1 mm 3 m/s 730 mmHg 95%
    18:00 0°C° 0.1 mm 3 m/s 730 mmHg 94%
    19:00 -1°C° 0.1 mm 3 m/s 730 mmHg 92%
    20:00 -1°C° 0 mm 3 m/s 730 mmHg 92%
    21:00 0°C° 0 mm 3 m/s 730 mmHg 91%
    22:00 -1°C° 0 mm 4 m/s 730 mmHg 91%
    23:00 -1°C° 0 mm 4 m/s 730 mmHg 92%

    29 Janvier, Mardi

    Heure Température Précipitation Vent Pression Humidité
    00:00 -1°C° 0 mm 4 m/s 731 mmHg 93%
    01:00 -1°C° 0 mm 4 m/s 731 mmHg 94%
    02:00 -1°C° 0.2 mm 5 m/s 731 mmHg 94%
    03:00 -2°C° 0.2 mm 6 m/s 732 mmHg 94%
    04:00 -2°C° 0.2 mm 6 m/s 732 mmHg 95%
    05:00 -2°C° 0.2 mm 7 m/s 733 mmHg 93%
    06:00 -2°C° 0.2 mm 7 m/s 734 mmHg 92%
    07:00 -3°C° 0.2 mm 7 m/s 735 mmHg 90%
    08:00 -3°C° 0.1 mm 7 m/s 736 mmHg 88%
    09:00 -3°C° 0.1 mm 7 m/s 737 mmHg 86%
    10:00 -4°C° 0.1 mm 7 m/s 738 mmHg 84%
    11:00 -3°C° 0 mm 6 m/s 738 mmHg 83%
    12:00 -3°C° 0 mm 6 m/s 739 mmHg 82%
    13:00 -2°C° 0 mm 5 m/s 739 mmHg 82%
    14:00 -2°C° 0 mm 5 m/s 739 mmHg 83%
    15:00 -2°C° 0 mm 5 m/s 740 mmHg 84%
    16:00 -2°C° 0 mm 5 m/s 740 mmHg 86%
    17:00 -2°C° 0 mm 4 m/s 740 mmHg 86%
    18:00 -2°C° 0 mm 4 m/s 740 mmHg 87%
    19:00 -3°C° 0 mm 4 m/s 740 mmHg 87%
    20:00 -3°C° 0 mm 4 m/s 740 mmHg 87%
    21:00 -3°C° 0 mm 4 m/s 740 mmHg 87%
    22:00 -3°C° 0 mm 4 m/s 740 mmHg 87%
    23:00 -4°C° 0 mm 4 m/s 740 mmHg 86%
    Voir plus